Regional Weather Roundup
Issued by NWS

Home | Current Version | Previous Version | Graphics & Text | Print | Product List | Glossary On
Versions: 1 2 3 4 5 6 7 8 9 10 11 12 13 14 15 16 17 18 19 20 21 22 23 24 25 26 27 28 29 30 31 32 33 34 35 36 37 38 39 40 41 42 43 44 45 46 47 48 49 50
000
ASUS43 KBIS 270610
RWRND

NORTH DAKOTA REGIONAL WEATHER ROUNDUP
NATIONAL WEATHER SERVICE BISMARCK ND
100 AM CDT WED AUG 27 2014

NOTE: "FAIR" INDICATES FEW OR NO CLOUDS BELOW 12,000 FEET WITH NO
SIGNIFICANT WEATHER AND/OR OBSTRUCTIONS TO VISIBILITY.


NDZ001>003-009>011-017-270700-
NORTHWEST NORTH DAKOTA

CITY           SKY/WX    TMP DP  RH WIND       PRES   REMARKS
WILLISTON      CLEAR     50  47  89 CALM      30.12S
6HR MIN TEMP:  50; 6HR MAX TEMP:  73;

MINOT          FAIR      57  51  80 SW8       30.15S
MINOT AFB      FAIR      52  52  99 SW8       30.14S
$$

NDZ018>021-031>035-040>046-270700-
SOUTHWEST NORTH DAKOTA

CITY           SKY/WX    TMP DP  RH WIND       PRES   REMARKS
BISMARCK       CLOUDY    56  54  93 E3        30.19S
6HR MIN TEMP:  55; 6HR MAX TEMP:  60;

DICKINSON      CLEAR     51  50  96 S8        30.16F
GARRISON         N/A     53  52  96 SW3       30.17S
6HR MIN TEMP:  52; 6HR MAX TEMP:  66;

HETTINGER ARPT CLEAR     50  48  93 NE5       30.19F
$$

NDZ004>008-012>016-024-026-027-054-270700-
NORTHEAST NORTH DAKOTA

CITY           SKY/WX    TMP DP  RH WIND       PRES   REMARKS
GRAND FORKS    FAIR      53  51  93 SW6       30.16R
GRND FRKS AFB  FAIR      53  53  99 SW6       30.17R
DEVILS LAKE    FAIR      57  52  82 SW9       30.16R
$$

NDZ022-023-025-028>030-036>039-047>053-270700-
SOUTHEAST NORTH DAKOTA

CITY           SKY/WX    TMP DP  RH WIND       PRES   REMARKS
FARGO          FAIR      57  56  96 CALM      30.18F
6HR MIN TEMP:  55; 6HR MAX TEMP:  66; 6HR PCP:  0.04;

JAMESTOWN      FAIR      52  50  93 CALM      30.19S FOG
$$




USA.gov is the U.S. government's official web portal to all federal, state and local government web resources and services.